Temperature
4 4 4 4 4 4 4 3 3 3 3 3 3 3 3 3 3 3 3 3 3 3 3 3 3 3 3 3 3 3 3 4 3 3 3 3 3 3
3 3 3 3 3 3 3 3 3 2 2 2 2 2 2 2 2 2 2 2 2 3 3 3 3 3 3 3 3 3 3 3 3 3 3 3 3 3
3 2 3 2 2 2 2 2 2 2 2 2 2 2 2 1 2 2 2 2 2 2 2 2 2 2 3 2 2 3 2 2 2 2 2 2 2 3
2 2 2 2 2 2 2 2 2 2 1 1 1 1 1 1 1 1 2 2 1 2 2 2 2 2 2 2 2 2 2 2 2 2 2 2 2 2
2 2 2 2 2 1 1 1 1 1 1 1 1 1 1 1 1 1 1 1 1 1 1 1 2 2 2 2 2 2 1 2 2 2 2 2 2 2
1 1 1 1 1 1 1 1 1 1 1 0 0 0 0 0 0 0 1 1 1 1 1 1 1 1 1 2 1 1 1 1 1 1 1 1 1 1
1 1 1 1 1 0 1 1 0 0 0 -0 -0 -0 -0 -0 -0 -0 -0 -0 0 0 1 1 1 1 1 1 1 1 1 1 1 1 1 1 1 1
0 0 0 0 0 0 0 0 0 -0 -0 -0 -0 -0 -0 -0 -0 -1 -1 -1 -1 -0 -0 -0 -0 0 0 0 0 0 1 1 1 1 1 1 1 0
-0 -0 -0 -0 -1 -1 -0 -0 -0 -1 -1 -1 -1 -1 -1 -1 -1 -1 -1 -1 -1 -1 -1 -1 -0 -0 -0 -0 -0 0 0 0 0 1 1 1 0 0
-1 -1 -1 -1 -1 -1 -1 -1 -1 -1 -1 -1 -1 -1 -1 -1 -1 -1 -1 -1 -1 -1 -1 -1 -1 -1 -1 -0 -0 -0 -0 -0 -0 0 0 0 0 -0
-1 -1 -1 -1 -1 -1 -1 -1 -1 -1 -1 -1 -1 -1 -1 -1 -1 -2 -2 -2 -2 -2 -2 -2 -2 -2 -1 -1 -1 -1 -1 -1 -0 -0 -0 -0 -0 -0
-2 -2 -2 -2 -2 -2 -2 -1 -1 -1 -1 -1 -1 -1 -2 -2 -2 -2 -2 -2 -2 -2 -2 -2 -2 -2 -2 -2 -1 -1 -1 -1 -1 -1 -1 -1 -1 -1
-2 -2 -2 -2 -2 -2 -2 -2 -2 -2 -2 -2 -2 -2 -2 -2 -2 -2 -2 -2 -2 -3 -2 -2 -3 -3 -3 -3 -2 -2 -2 -2 -1 -1 -1 -1 -1 -1
-3 -3 -3 -3 -2 -2 -2 -2 -3 -2 -2 -3 -3 -2 -2 -2 -3 -3 -2 -2 -2 -2 -2 -2 -3 -3 -3 -3 -3 -2 -2 -2 -2 -2 -2 -2 -2 -2
-3 -3 -3 -3 -3 -3 -3 -3 -3 -3 -3 -3 -3 -3 -3 -3 -3 -3 -3 -3 -3 -2 -2 -2 -3 -3 -3 -3 -3 -3 -3 -2 -2 -2 -2 -2 -2 -2
-3 -3 -3 -3 -3 -3 -3 -3 -3 -3 -3 -3 -3 -3 -3 -3 -3 -3 -3 -3 -3 -3 -3 -3 -3 -3 -3 -3 -3 -3 -3 -3 -3 -3 -3 -2 -2 -2
-4 -4 -4 -4 -4 -4 -4 -4 -4 -4 -4 -4 -4 -4 -4 -4 -4 -3 -3 -4 -3 -3 -3 -3 -3 -3 -3 -3 -3 -3 -3 -3 -3 -3 -3 -3 -3 -3
-4 -4 -4 -4 -4 -4 -4 -4 -4 -4 -4 -4 -4 -4 -4 -4 -4 -4 -4 -4 -4 -4 -3 -3 -3 -3 -3 -3 -3 -3 -3 -3 -3 -3 -3 -3 -3 -3
-4 -5 -5 -5 -5 -5 -5 -5 -4 -4 -4 -4 -4 -4 -4 -4 -4 -4 -4 -4 -4 -4 -4 -4 -4 -4 -4 -4 -4 -4 -4 -3 -3 -3 -3 -3 -3 -3
-5 -5 -5 -5 -5 -5 -5 -5 -5 -5 -4 -4 -4 -4 -4 -4 -4 -4 -4 -4 -4 -4 -4 -4 -4 -4 -4 -4 -4 -4 -4 -4 -3 -3 -3 -3 -3 -3
-5 -5 -5 -5 -5 -5 -5 -5 -5 -5 -4 -4 -4 -4 -4 -4 -4 -4 -4 -4 -4 -4 -5 -4 -4 -4 -4 -4 -4 -4 -4 -4 -4 -4 -4 -3 -3 -3
-6 -6 -5 -5 -5 -5 -5 -5 -5 -5 -5 -5 -5 -5 -5 -5 -5 -5 -4 -5 -5 -5 -5 -5 -4 -4 -4 -4 -4 -4 -4 -4 -4 -4 -4 -4 -4 -4
-6 -6 -5 -5 -5 -5 -5 -5 -5 -5 -5 -5 -5 -5 -5 -5 -5 -5 -5 -5 -5 -5 -5 -5 -5 -5 -4 -4 -5 -5 -4 -4 -4 -4 -4 -4 -4 -4
Wind_Speed
7 7 6 5 4 4 4 4 5 6 7 5 4 5 5 6 7 7 8 10 12 12 11 11 11 13 13 13 14 14 14 14 13 13 13 14 14 13
5 6 5 4 4 4 4 4 4 5 6 5 4 5 5 5 7 7 9 10 10 10 10 11 11 12 12 13 13 13 13 13 12 12 13 13 14 13
5 6 5 5 4 4 4 3 4 4 6 5 5 5 6 6 5 6 7 7 6 8 10 10 11 11 12 12 12 12 12 11 12 12 12 12 13 12
6 5 5 4 5 4 4 4 4 4 5 6 5 4 5 6 6 6 5 6 6 7 9 9 10 10 11 11 11 12 11 10 10 10 11 12 12 12
5 5 5 5 5 4 4 4 3 4 4 4 5 4 4 4 5 5 6 5 5 5 6 7 8 9 10 9 9 10 9 9 9 10 10 11 11 11
5 5 5 5 5 4 4 3 3 3 3 4 4 3 4 4 4 4 4 4 4 4 4 5 6 8 8 7 7 7 7 7 8 8 9 9 9 10
4 4 4 5 5 4 3 3 3 3 3 3 3 3 3 3 3 4 4 4 4 3 3 4 4 4 5 5 6 5 5 5 6 7 7 7 8 9
3 3 3 3 3 4 4 4 4 4 4 4 4 4 4 4 3 3 3 3 4 3 3 4 4 4 4 3 5 5 4 4 5 6 6 6 7 8
3 3 2 2 2 2 3 3 4 5 5 4 4 4 4 4 3 4 4 4 4 4 4 4 3 4 3 4 6 6 5 5 5 5 5 6 6 7
3 3 2 2 2 2 2 2 3 3 4 3 3 3 3 3 3 3 3 3 4 3 2 2 3 3 4 4 5 5 5 6 6 6 7 6 7 7
2 2 2 2 2 2 2 2 2 2 2 1 2 2 3 3 2 1 1 1 2 3 2 1 2 3 3 3 4 5 5 6 7 8 8 7 8 7
2 1 2 2 2 2 2 2 1 2 2 2 2 2 1 1 1 1 1 1 2 2 2 1 1 2 2 2 3 4 5 6 7 8 8 8 8 6
1 1 1 1 2 2 1 1 1 1 1 1 2 2 2 2 2 2 2 1 1 2 2 1 1 1 1 2 3 3 4 5 5 6 7 8 8 6
1 1 1 1 1 1 1 2 2 2 1 1 1 2 2 2 3 3 3 2 1 2 2 2 0 1 1 2 2 3 4 4 5 5 5 7 7 7
0 1 1 1 1 1 2 2 2 1 1 1 1 2 2 2 2 3 3 3 3 2 2 1 1 1 1 1 2 3 4 4 4 4 5 5 5 5
1 1 2 2 2 2 2 2 1 1 1 1 1 1 2 2 2 2 2 2 2 3 3 3 2 1 1 2 2 3 3 3 4 5 5 5 5 5
1 1 1 1 1 2 2 2 1 1 1 1 1 1 1 2 2 2 1 2 1 2 3 4 4 3 2 1 1 2 3 3 4 5 5 4 4 4
1 0 0 1 1 1 1 1 1 1 1 1 1 1 1 1 1 1 1 1 1 1 2 3 3 2 2 2 2 2 2 3 4 4 4 3 4 4
1 0 0 1 1 1 1 1 1 1 1 0 0 0 1 1 1 1 1 1 1 2 2 2 2 2 2 2 3 3 3 4 4 4 4 3 4 5
0 0 1 1 1 1 1 1 1 1 0 0 0 0 0 0 0 1 1 1 1 2 2 2 2 2 2 2 2 3 5 4 4 4 4 4 3 4
0 1 1 1 1 1 1 1 1 1 1 1 1 0 0 0 0 1 1 1 1 1 2 2 3 3 2 1 1 2 4 4 4 3 4 3 3 3
1 1 1 2 1 1 1 1 1 1 1 1 1 0 0 1 1 1 0 1 1 1 1 2 2 2 1 1 2 3 4 5 5 5 4 3 2 2
2 2 2 2 2 2 1 1 1 1 1 1 1 0 0 0 0 0 0 0 1 1 1 1 2 2 2 1 2 2 4 5 4 4 4 5 3 3
Wind_Direction
247 247 248 253 252 252 251 249 253 268 274 273 276 271 273 270 273 271 272 269 271 269 270 273 277 277 277 277 281 281 283 279 278 278 278 282 280 282
249 248 251 255 254 253 247 254 256 259 266 270 277 285 280 279 281 278 274 277 264 264 269 274 277 275 275 275 280 281 281 281 279 283 281 285 285 284
249 245 248 254 253 251 248 246 250 257 266 282 286 287 287 286 285 285 287 282 270 268 274 277 278 279 278 275 279 279 281 281 281 284 289 288 292 290
248 245 250 254 256 254 247 246 249 254 258 272 283 288 290 290 294 294 292 284 280 279 281 283 285 289 286 276 276 279 280 282 282 286 292 292 292 295
245 247 252 251 256 261 260 249 250 254 258 262 279 295 297 294 295 295 296 294 288 287 286 290 294 296 295 284 276 277 278 280 283 289 297 296 296 297
251 251 252 252 249 256 255 249 247 251 254 259 271 287 296 300 296 298 303 310 309 307 302 303 301 300 300 304 294 283 280 284 288 293 295 297 297 299
260 257 257 259 260 264 257 243 234 236 242 250 264 282 290 302 297 295 299 313 311 315 321 317 309 302 300 309 312 299 283 288 290 297 304 307 306 303
256 264 262 261 262 272 265 257 245 234 237 247 261 265 280 287 294 291 297 307 306 324 321 309 308 312 320 326 332 333 328 306 298 303 308 315 315 310
253 262 269 271 272 262 264 258 260 262 261 256 258 266 274 279 279 282 287 299 302 313 320 312 322 320 330 337 339 337 338 341 342 343 342 334 326 318
269 262 256 266 269 267 265 269 279 281 273 268 274 277 283 280 274 276 283 305 310 317 326 315 326 328 336 339 352 352 355 359 358 358 356 353 348 343
277 264 254 261 266 268 268 273 289 308 321 303 308 316 319 307 301 294 285 305 315 325 340 322 339 343 333 335 4 14 10 8 10 8 7 11 5 356
293 269 254 262 274 270 264 256 270 309 345 358 4 16 0 344 315 259 260 274 316 327 347 343 332 346 346 358 4 6 7 10 9 4 5 7 3 358
314 312 298 304 294 299 308 309 328 352 11 22 16 15 19 12 4 5 354 316 307 307 326 340 348 349 328 323 345 354 354 356 360 360 3 4 0 358
307 317 0 23 356 15 24 63 67 41 36 32 25 22 20 10 7 15 20 17 351 307 306 308 265 291 316 314 318 337 347 353 355 353 358 2 2 360
25 69 54 53 42 49 78 76 51 44 51 37 25 16 13 7 8 19 31 35 26 13 341 328 312 296 303 297 305 321 332 344 353 351 352 354 353 353
69 79 67 55 57 62 58 43 29 25 34 31 24 21 14 16 13 9 17 19 19 19 21 17 13 9 325 301 298 311 325 329 341 346 348 350 354 354
70 53 34 41 47 41 32 25 24 26 35 44 46 27 18 14 3 7 16 10 25 17 12 15 16 12 351 319 308 317 329 333 333 340 345 349 350 355
112 116 40 16 18 15 10 3 7 16 27 39 19 11 357 347 351 1 7 13 29 19 10 6 11 13 14 27 357 316 335 338 337 338 339 345 348 354
114 105 359 331 332 329 322 326 336 349 358 1 348 328 318 315 331 348 2 6 11 8 1 352 355 7 7 359 7 15 345 339 339 340 342 339 336 337
60 266 288 299 300 297 297 301 311 331 331 304 296 302 294 286 284 306 330 356 357 356 354 355 360 358 344 327 320 330 340 333 336 337 337 332 329 326
306 286 283 287 290 298 302 295 290 291 299 295 285 293 275 247 257 293 321 342 345 343 345 348 349 339 317 308 314 329 346 355 335 321 325 327 334 346
273 272 279 284 287 287 286 271 267 276 278 271 272 281 260 240 247 266 284 317 338 342 342 346 349 348 359 17 348 335 341 351 3 5 353 330 319 329
263 267 276 281 275 271 262 253 248 264 271 262 248 262 260 271 269 253 272 341 357 355 350 354 2 9 11 1 348 344 343 346 352 1 8 9 352 308
Height
1450 1450 1450 1449 1449 1449 1448 1448 1448 1445 1443 1442 1443 1442 1441 1439 1438 1437 1436 1434 1433 1433 1432 1431 1430 1429 1429 1428 1428 1427 1427 1427 1426 1426 1426 1426 1425 1425
1445 1445 1445 1444 1444 1443 1443 1442 1442 1441 1439 1438 1437 1437 1436 1434 1433 1432 1431 1430 1428 1427 1426 1426 1425 1424 1423 1422 1422 1422 1422 1421 1420 1420 1420 1420 1419 1419
1440 1440 1440 1440 1439 1439 1438 1437 1437 1436 1435 1433 1433 1433 1432 1430 1429 1427 1426 1425 1424 1422 1421 1420 1419 1418 1417 1417 1416 1416 1416 1415 1415 1414 1414 1414 1413 1413
1435 1435 1435 1435 1434 1434 1433 1432 1432 1432 1431 1429 1428 1428 1427 1426 1425 1423 1422 1420 1419 1418 1417 1415 1414 1413 1412 1411 1411 1410 1410 1409 1409 1409 1408 1408 1408 1407
1431 1431 1431 1430 1430 1430 1429 1428 1428 1427 1427 1426 1424 1424 1423 1422 1421 1419 1418 1416 1415 1414 1412 1411 1410 1409 1407 1406 1405 1405 1404 1404 1404 1404 1403 1403 1402 1402
1427 1427 1426 1426 1426 1425 1425 1424 1424 1424 1423 1423 1422 1420 1420 1419 1418 1416 1414 1413 1412 1411 1409 1408 1406 1405 1403 1401 1401 1400 1400 1400 1400 1399 1399 1398 1398 1398
1423 1422 1422 1422 1422 1422 1421 1421 1421 1420 1420 1419 1418 1417 1416 1416 1415 1414 1412 1410 1409 1408 1406 1405 1403 1402 1400 1398 1397 1396 1396 1395 1395 1395 1395 1394 1394 1394
1419 1419 1418 1419 1418 1418 1418 1418 1418 1417 1416 1416 1415 1414 1414 1413 1413 1412 1410 1409 1407 1407 1404 1403 1401 1399 1397 1396 1395 1394 1393 1392 1392 1391 1391 1390 1390 1390
1416 1415 1415 1415 1415 1415 1414 1415 1415 1414 1414 1414 1412 1411 1411 1411 1410 1409 1408 1407 1406 1405 1403 1400 1400 1398 1397 1395 1394 1393 1392 1390 1389 1389 1388 1388 1387 1387
1413 1413 1413 1412 1412 1412 1412 1412 1411 1411 1410 1410 1410 1410 1409 1409 1409 1408 1407 1405 1404 1403 1402 1400 1398 1397 1396 1394 1393 1392 1391 1389 1388 1387 1386 1385 1384 1383
1411 1411 1411 1411 1410 1410 1410 1409 1408 1408 1408 1408 1408 1408 1407 1406 1406 1406 1405 1404 1402 1402 1401 1399 1397 1396 1395 1394 1394 1392 1390 1389 1388 1386 1385 1383 1382 1381
1409 1409 1409 1409 1409 1408 1408 1407 1406 1406 1406 1406 1406 1405 1405 1405 1404 1404 1403 1403 1402 1401 1400 1399 1398 1396 1394 1394 1393 1392 1390 1389 1388 1386 1385 1383 1382 1380
1407 1407 1407 1407 1407 1406 1406 1405 1405 1405 1404 1404 1404 1404 1404 1403 1403 1402 1402 1402 1401 1401 1401 1399 1398 1397 1395 1394 1393 1392 1391 1390 1388 1386 1385 1383 1382 1380
1406 1406 1406 1406 1405 1405 1404 1404 1404 1404 1404 1403 1403 1403 1402 1402 1402 1402 1402 1402 1401 1401 1401 1400 1398 1397 1396 1394 1393 1392 1392 1390 1388 1386 1385 1383 1381 1379
1404 1405 1405 1404 1404 1403 1403 1403 1403 1403 1403 1403 1403 1402 1402 1402 1402 1402 1402 1401 1401 1401 1401 1400 1398 1397 1396 1394 1393 1392 1391 1390 1388 1386 1385 1383 1381 1379
1404 1404 1404 1404 1403 1403 1402 1402 1402 1402 1402 1402 1402 1402 1402 1402 1402 1402 1401 1401 1401 1400 1400 1399 1398 1397 1395 1394 1393 1392 1391 1390 1389 1387 1385 1383 1381 1379
1403 1404 1404 1403 1403 1402 1402 1402 1402 1402 1402 1402 1402 1402 1402 1402 1402 1402 1402 1401 1400 1399 1399 1399 1398 1397 1396 1395 1393 1392 1391 1390 1389 1387 1385 1383 1381 1380
1403 1403 1403 1403 1402 1401 1401 1401 1402 1401 1402 1402 1402 1402 1402 1402 1402 1402 1401 1401 1400 1400 1399 1398 1397 1396 1396 1395 1395 1393 1392 1391 1389 1388 1386 1383 1382 1381
1403 1402 1402 1402 1401 1401 1401 1401 1401 1401 1401 1402 1402 1402 1402 1402 1402 1401 1401 1401 1400 1400 1399 1398 1398 1397 1396 1395 1395 1394 1392 1391 1390 1388 1387 1385 1382 1380
1401 1401 1401 1401 1401 1401 1401 1400 1400 1401 1401 1401 1401 1402 1402 1402 1401 1401 1401 1400 1400 1399 1399 1398 1398 1397 1397 1396 1395 1394 1393 1391 1389 1388 1386 1385 1383 1381
1400 1400 1400 1400 1400 1400 1400 1400 1400 1401 1401 1401 1401 1401 1401 1401 1401 1401 1400 1400 1400 1399 1399 1398 1398 1398 1396 1396 1395 1394 1393 1392 1390 1388 1387 1385 1383 1381
1399 1399 1399 1399 1399 1399 1400 1400 1400 1400 1400 1401 1401 1400 1400 1400 1400 1400 1400 1399 1399 1399 1399 1398 1398 1397 1396 1395 1394 1393 1392 1392 1391 1389 1388 1386 1384 1381
1398 1398 1398 1398 1398 1399 1399 1399 1399 1399 1399 1399 1400 1400 1399 1399 1399 1399 1399 1399 1399 1399 1398 1398 1397 1397 1396 1396 1395 1394 1393 1391 1390 1389 1388 1386 1385 1383